Regional Weather Roundup
Issued by NWS

Home | Current Version | Previous Version | Graphics & Text | Print | Product List | Glossary On
Versions: 1 2 3 4 5 6 7 8 9 10 11 12 13 14 15 16 17 18 19 20 21 22 23 24 25 26 27 28 29 30 31 32 33 34 35 36 37 38 39 40 41 42 43 44 45 46 47 48 49 50
011
ASUS45 KTFX 032110
RWRMT
MONTANA REGIONAL WEATHER ROUNDUP
NATIONAL WEATHER SERVICE GREAT FALLS MT
300 PM MDT TUE MAY 03 2016

NOTE: "FAIR" INDICATES FEW OR NO CLOUDS BELOW 12000 FEET WITH NO
SIGNIFICANT WEATHER AND/OR OBSTRUCTIONS TO VISIBILITY.

MTZ001>007-043-032200-
WEST OF THE DIVIDE

CITY           SKY/WX    TMP DP  RH WIND       PRES   REMARKS
KALISPELL      SUNNY     76  41  28 S8        30.07F
MISSOULA       SUNNY     77  34  21 CALM      30.09F
BUTTE          SUNNY     71  26  18 VRB7      30.18F
MULLAN PASS    PTSUNNY   64  28  25 VRB5      30.21F
$$

MTZ008-052>055-032200-
SOUTHWEST MONTANA

CITY           SKY/WX    TMP DP  RH WIND       PRES   REMARKS
BOZEMAN        SUNNY     74  31  20 NW8       30.15F
DILLON         SUNNY     72  26  18 CALM      30.16F
ENNIS          SUNNY     72  25  17 VRB5      30.23F
$$

MTZ009-010-012-014-046-048-049-054-032200-
EAST SLOPES AND CENTRAL MONTANA

CITY           SKY/WX    TMP DP  RH WIND       PRES   REMARKS
CUT BANK         N/A     77  30  17 E5        30.07F
GREAT FALLS    SUNNY     76  28  17 CALM      30.08F
MALMSTROM AFB  SUNNY     76  32  20 NW3       30.08F
HELENA         SUNNY     78  30  17 E6        30.11F
$$

MTZ011-013-016-021-045-047-050-051-032200-
NORTH CENTRAL MONTANA

CITY           SKY/WX    TMP DP  RH WIND       PRES   REMARKS
HAVRE          SUNNY     78  45  30 E5        30.06F
LEWISTOWN      SUNNY     77  33  20 N6        30.12F
N BAR RANCH      N/A     73  36  25 E10G18    30.16S
$$

MTZ017>020-022>027-061-062-032200-
NORTHEAST MONTANA

CITY           SKY/WX    TMP DP  RH WIND       PRES   REMARKS
GLASGOW        SUNNY     80  37  21 NE9       30.06F
JORDAN           N/A     78  37  22 N9        30.09S
SIDNEY         SUNNY     79  37  22 N8        30.05F
WOLF POINT     SUNNY     81  41  24 VRB5      30.05F
$$

MTZ028>42-056>058-032200-
SOUTHCENTRAL AND SOUTHEAST MONTANA

CITY           SKY/WX    TMP DP  RH WIND       PRES   REMARKS
BAKER          SUNNY     76  33  21 N5G16     30.10R
BILLINGS       MOSUNNY   74  32  21 VRB5      30.13F
LIVINGSTON     SUNNY     76  29  17 NW6       30.14F
MILES CITY     SUNNY     78  34  20 NW7       30.08F
$$

REGIONAL REPORTS...DAKOTAS

CITY           SKY/WX    TMP DP  RH WIND       PRES   REMARKS
WILLISTON      SUNNY     82  38  20 N14G26    30.03S
MINOT          SUNNY     79  31  17 NW18G26   30.00S
DICKINSON      SUNNY     75  34  22 NW17G25   30.03S
BEACH            N/A     75  32  20 N12G20    30.11S
CROSBY           N/A     77  36  22 N17       30.05S
TIOGA            N/A     75  36  23 N15G28    30.09S
WATFORD CITY     N/A     79  37  22 N17G23    30.03F
BISMARCK       SUNNY     75  36  24 N17G30    29.97S
GRAND FORKS    SUNNY     67  31  26 N29G38    29.89S
FARGO          SUNNY     70  28  21 N36G43    29.85R
BUFFALO SD       N/A     76  33  21 N16       30.01F
RAPID CITY     SUNNY     72  39  30 N17G26    30.08S
$$

REGIONAL REPORTS...WYOMING/IDAHO/WASHINGTON

CITY           SKY/WX    TMP DP  RH WIND       PRES   REMARKS
GILLETTE       SUNNY     69  40  34 NW9       30.16S
SHERIDAN       SUNNY     73  39  29 VRB5      30.15F
BUFFALO WY     SUNNY     70  33  25 NE3       30.20S
CODY           SUNNY     70  30  23 SE3       30.18S
YELLOWSTONE LA   N/A     53  20  27 VRB3      30.35S
IDAHO FALLS    SUNNY     71  26  18 VRB3      30.22F
SALMON         SUNNY     73  32  21 NW5       30.10F
BOISE          SUNNY     79  29  16 SE8       30.09F
SPOKANE        MOSUNNY   80  35  19 S9        30.04F
$$

REGIONAL REPORTS...ALBERTA

CITY           SKY/WX    TMP DP  RH WIND       PRES   REMARKS
EDMONTON       MOSUNNY   84  34  16 SW5       29.90F
CALGARY        MOSUNNY   79  28  15 VRB6      30.00F
LETHBRIDGE     SUNNY     82  28  14 W10G25    30.00F
MEDICINE HAT   MOSUNNY   82  36  18 S10       30.00F
WATERTON GATE    N/A     75  27  16 SW16G25     N/A
MILK RIVER       N/A     79  37  22 NW5         N/A
$$

REGIONAL REPORTS...SASKATCHEWAN

CITY           SKY/WX    TMP DP  RH WIND       PRES   REMARKS
SWIFT CURRENT  SUNNY     79  34  19 VRB5      30.03F
REGINA         MOSUNNY   79  37  22 VRB10     30.03F
SASKATOON      MOSUNNY   84  39  20 S7        30.00F
CYPRESS HILLS    N/A     73  36  25 S9          N/A
VAL MARIE        N/A     79  36  21 W5          N/A
ROCKGLEN         N/A     77  36  22 NE5         N/A
ASSINIBOIA       N/A     88  32  13 S13G21      N/A
$$




USA.gov is the U.S. government's official web portal to all federal, state and local government web resources and services.